Location: ??
(36.7391°N, 127.5151°E)
Time: 10:23:05
(UTC+00:00)

Cosmos 1833 Rocket - Pass Details

Date: 07 June 2020
Orbit: 833 x 839 km, 71.0° (Epoch: 04 July)

Event Time Altitude Azimuth Distance (km) Brightness Sun altitude
Rises 11:22:04 0° 330° (NNW) 3,387 7.2 -6.8°
Reaches altitude 10° 11:24:36 10° 325° (NW) 2,450 6.5 -7.2°
Maximum altitude 11:29:53 44° 254° (WSW) 1,142 3.8 -8.0°
Drops below altitude 10° 11:35:10 10° 184° (S) 2,439 4.8 -8.9°
Sets 11:37:41 0° 178° (S) 3,370 5.4 -9.3°
